Perryton, TX

6:19 PM CDT on September 25, 2017 (GMT -0500)
Perryton Ochiltree County

Weather History for KPYX - January, 2013

Change the Weather History Date:

Saturday, January 5, 2013

  Actual Average Record
Temperature  
Mean Temperature 32 °F -  
Max Temperature 41 °F 46 °F 73 °F (1989)
Min Temperature 23 °F 17 °F -5 °F (1974)
Degree Days  
Heating Degree Days 33    
Moisture  
Dew Point 26 °F    
Average Humidity 77    
Maximum Humidity 93    
Minimum Humidity 52    
Precipitation  
Precipitation 0.00 in - - ()
Sea Level Pressure  
Sea Level Pressure 30.17 in    
Wind  
Wind Speed 12 mph (West)    
Max Wind Speed 24 mph    
Max Gust Speed 26 mph    
Visibility 10 miles    
Events      
Averages and records for this station are not official NWS values.
T = Trace of Precipitation, MM = Missing Value Source: NWS Daily Summary

Daily Weather History Graph

Daily Weather History Graph

Search for Another Location

Airport or City:

Trip Planner

Search our weather history database for the weather conditions in past years. The results will help you decide how hot, cold, wet, or windy it might be!

Date:

Astronomy

Jan. 05, 2013 Rise Set
Actual Time 7:55 AM CST 5:42 PM CST
Civil Twilight 7:26 AM CST 6:10 PM CST
Nautical Twilight 6:54 AM CST 6:42 PM CST
Astronomical Twilight 6:23 AM CST 7:14 PM CST
Moon 1:09 AM CST (1/5) 12:28 PM CST (1/5)
Length of Visible Light 10h 44m
Length of Day
9h 47m
Last Quarter, 44% of the Moon is Illuminated
Jan 5
Last Quarter
Jan 11
New
Jan 18
First Quarter
Jan 26
Full
Feb 3
Last Quarter

Hourly Weather History & Observations

Time (CST) Temp. Windchill Dew Point Humidity Pressure Visibility Wind Dir Wind Speed Gust Speed Precip Events Conditions
12:15 AM 32.0 °F 23.0 °F 30.2 °F 93% 30.11 in 10.0 mi South 11.5 mph - N/A   Overcast
12:35 AM 32.0 °F 23.0 °F 28.4 °F 87% 30.10 in 10.0 mi South 11.5 mph - N/A   Overcast
12:55 AM 32.0 °F 23.6 °F 28.4 °F 87% 30.09 in 10.0 mi South 10.4 mph - N/A   Scattered Clouds
1:15 AM 32.0 °F 23.6 °F 28.4 °F 87% 30.09 in 10.0 mi South 10.4 mph - N/A   Clear
1:35 AM 32.0 °F 24.2 °F 28.4 °F 87% 30.09 in 10.0 mi South 9.2 mph - N/A   Clear
1:55 AM 32.0 °F 23.6 °F 28.4 °F 87% 30.08 in 10.0 mi South 10.4 mph - N/A   Clear
2:15 AM 32.0 °F 23.0 °F 28.4 °F 87% 30.08 in 10.0 mi South 11.5 mph - N/A   Clear
2:35 AM 32.0 °F 23.6 °F 28.4 °F 87% 30.07 in 10.0 mi South 10.4 mph - N/A   Clear
2:55 AM 32.0 °F 22.5 °F 28.4 °F 87% 30.07 in 10.0 mi South 12.7 mph - N/A   Clear
3:15 AM 32.0 °F 22.5 °F 26.6 °F 80% 30.06 in 10.0 mi SSW 12.7 mph - N/A   Clear
3:35 AM 30.2 °F 21.3 °F 26.6 °F 86% 30.07 in 10.0 mi SSW 10.4 mph - N/A   Clear
3:55 AM 30.2 °F 21.3 °F 26.6 °F 86% 30.07 in 10.0 mi SSW 10.4 mph - N/A   Scattered Clouds
4:15 AM 30.2 °F 23.4 °F 26.6 °F 86% 30.08 in 10.0 mi SSW 6.9 mph - N/A   Mostly Cloudy
4:35 AM 30.2 °F 22.6 °F 26.6 °F 86% 30.07 in 10.0 mi SSW 8.1 mph - N/A   Scattered Clouds
4:55 AM 28.4 °F 19.7 °F 26.6 °F 93% 30.06 in 10.0 mi SSW 9.2 mph - N/A   Clear
5:15 AM 28.4 °F 19.1 °F 26.6 °F 93% 30.05 in 10.0 mi SSW 10.4 mph - N/A   Clear
5:55 AM 28.4 °F 20.4 °F 26.6 °F 93% 30.05 in 10.0 mi SSW 8.1 mph - N/A   Clear
6:35 AM 26.6 °F 19.1 °F 23.0 °F 86% 30.06 in 10.0 mi SSW 6.9 mph - N/A   Clear
6:55 AM 26.6 °F 19.1 °F 23.0 °F 86% 30.06 in 10.0 mi SW 6.9 mph - N/A   Clear
7:15 AM 26.6 °F 17.5 °F 23.0 °F 86% 30.08 in 10.0 mi WSW 9.2 mph - N/A   Clear
7:35 AM 26.6 °F 15.7 °F 23.0 °F 86% 30.07 in 10.0 mi WSW 12.7 mph - N/A   Clear
7:55 AM 24.8 °F 14.0 °F 21.2 °F 86% 30.08 in 10.0 mi West 11.5 mph - N/A   Clear
8:15 AM 23.0 °F 10.6 °F 19.4 °F 86% 30.09 in 10.0 mi West 13.8 mph - N/A   Clear
8:35 AM 23.0 °F 9.2 °F 19.4 °F 86% 30.10 in 10.0 mi WNW 17.3 mph - N/A   Clear
8:55 AM 24.8 °F 13.4 °F 19.4 °F 80% 30.10 in 10.0 mi WNW 12.7 mph - N/A   Clear
9:15 AM 26.6 °F 15.2 °F 19.4 °F 74% 30.11 in 10.0 mi WNW 13.8 mph - N/A   Clear
9:35 AM 28.4 °F 16.6 °F 19.4 °F 69% 30.12 in 10.0 mi West 16.1 mph - N/A   Clear
9:55 AM 30.2 °F 19.3 °F 17.6 °F 60% 30.12 in 10.0 mi WNW 15.0 mph - N/A   Clear
10:15 AM 30.2 °F 17.8 °F 17.6 °F 60% 30.14 in 10.0 mi NW 19.6 mph - N/A   Clear
11:15 AM 32.0 °F 20.1 °F 21.2 °F 64% 30.16 in 10.0 mi NW 19.6 mph - N/A   Clear
11:35 AM 33.8 °F 22.8 °F 21.2 °F 60% 30.16 in 10.0 mi NNW 18.4 mph - N/A   Clear
11:55 AM 35.6 °F 24.5 °F 23.0 °F 60% 30.15 in 10.0 mi NNW 20.7 mph 25.3 mph N/A   Clear
12:15 PM 35.6 °F 24.8 °F 23.0 °F 60% 30.14 in 10.0 mi NNW 19.6 mph - N/A   Clear
12:35 PM 37.4 °F 26.9 °F 24.8 °F 60% 30.15 in 10.0 mi NW 20.7 mph 25.3 mph N/A   Clear
12:55 PM 37.4 °F 27.2 °F 24.8 °F 60% 30.14 in 10.0 mi NW 19.6 mph 24.2 mph N/A   Clear
1:15 PM 39.2 °F 29.0 °F 24.8 °F 56% 30.15 in 10.0 mi NW 21.9 mph - N/A   Clear
1:35 PM 39.2 °F 30.5 °F 26.6 °F 61% 30.14 in 10.0 mi NW 16.1 mph 23.0 mph N/A   Clear
1:55 PM 39.2 °F 30.2 °F 24.8 °F 56% 30.15 in 10.0 mi NW 17.3 mph - N/A   Clear
2:15 PM 39.2 °F 29.6 °F 23.0 °F 52% 30.16 in 10.0 mi NW 19.6 mph - N/A   Clear
2:35 PM 41.0 °F 31.6 °F 24.8 °F 53% 30.16 in 10.0 mi NW 20.7 mph - N/A   Clear
2:55 PM 41.0 °F 31.4 °F 24.8 °F 53% 30.17 in 10.0 mi NNW 21.9 mph 26.5 mph N/A   Clear
3:15 PM 41.0 °F 30.9 °F 24.8 °F 53% 30.18 in 10.0 mi NNW 24.2 mph - N/A   Clear
3:35 PM 41.0 °F 31.9 °F 24.8 °F 53% 30.19 in 10.0 mi NNW 19.6 mph 25.3 mph N/A   Clear
3:55 PM 41.0 °F 31.6 °F 24.8 °F 53% 30.19 in 10.0 mi NNW 20.7 mph 24.2 mph N/A   Clear
4:15 PM 41.0 °F 31.9 °F 26.6 °F 57% 30.21 in 10.0 mi NNW 19.6 mph 23.0 mph N/A   Clear
4:35 PM 39.2 °F 30.5 °F 26.6 °F 61% 30.21 in 10.0 mi North 16.1 mph - N/A   Clear
4:55 PM 37.4 °F 30.3 °F 28.4 °F 70% 30.22 in 10.0 mi NNW 10.4 mph - N/A   Clear
5:15 PM 37.4 °F 30.3 °F 28.4 °F 70% 30.23 in 10.0 mi North 10.4 mph - N/A   Clear
5:35 PM 35.6 °F 29.2 °F 28.4 °F 75% 30.24 in 10.0 mi North 8.1 mph - N/A   Clear
5:55 PM 33.8 °F 27.0 °F 28.4 °F 81% 30.25 in 10.0 mi North 8.1 mph - N/A   Clear
6:15 PM 33.8 °F 28.6 °F 28.4 °F 81% 30.26 in 10.0 mi NNW 5.8 mph - N/A   Clear
6:35 PM 33.8 °F 29.6 °F 28.4 °F 81% 30.27 in 10.0 mi NW 4.6 mph - N/A   Clear
6:55 PM 33.8 °F 27.0 °F 28.4 °F 81% 30.27 in 10.0 mi NW 8.1 mph - N/A   Clear
7:15 PM 32.0 °F 25.6 °F 28.4 °F 87% 30.28 in 10.0 mi NW 6.9 mph - N/A   Clear
7:55 PM 32.0 °F 26.4 °F 28.4 °F 87% 30.29 in 10.0 mi NW 5.8 mph - N/A   Clear
8:15 PM 30.2 °F 25.4 °F 28.4 °F 93% 30.29 in 10.0 mi West 4.6 mph - N/A   Clear
8:35 PM 30.2 °F 22.6 °F 28.4 °F 93% 30.30 in 10.0 mi WNW 8.1 mph - N/A   Clear
8:55 PM 30.2 °F 23.4 °F 28.4 °F 93% 30.30 in 10.0 mi WNW 6.9 mph - N/A   Clear
9:15 PM 30.2 °F 23.4 °F 28.4 °F 93% 30.31 in 10.0 mi West 6.9 mph - N/A   Clear
9:35 PM 30.2 °F 24.3 °F 26.6 °F 86% 30.31 in 10.0 mi West 5.8 mph - N/A   Clear
9:55 PM 30.2 °F 24.3 °F 26.6 °F 86% 30.31 in 10.0 mi WNW 5.8 mph - N/A   Clear
10:35 PM 30.2 °F 22.6 °F 26.6 °F 86% 30.33 in 10.0 mi WNW 8.1 mph - N/A   Clear
10:55 PM 30.2 °F 23.4 °F 26.6 °F 86% 30.34 in 10.0 mi West 6.9 mph - N/A   Clear
11:15 PM 30.2 °F 23.4 °F 26.6 °F 86% 30.35 in 10.0 mi West 6.9 mph - N/A   Clear
11:35 PM 30.2 °F 21.9 °F 26.6 °F 86% 30.35 in 10.0 mi West 9.2 mph - N/A   Clear
11:55 PM 30.2 °F 22.6 °F 26.6 °F 86% 30.36 in 10.0 mi West 8.1 mph - N/A   Clear